Location: ???????
(55.5931°N, 39.3286°E)
Time: 10:01:24
(UTC+00:00)

Cosmos 921 Rocket - Pass Details

Date: 14 April 2024
Orbit: 567 x 626 km, 75.8° (Epoch: 28 May)

Event Time Altitude Azimuth Distance (km) Brightness Sun altitude
Rises 01:14:45 0° 185° (S) 2,793 6.1 -9.2°
Reaches altitude 10° 01:16:59 10° 179° (S) 1,907 5.3 -8.9°
Maximum altitude 01:21:03 47° 106° (ESE) 798 4.0 -8.4°
Drops below altitude 10° 01:25:13 10° 33° (NNE) 1,957 6.8 -7.9°
Sets 01:27:32 0° 28° (NNE) 2,875 7.6 -7.6°
